Theta_e
320 310 308 308 294 292 288 291 297 299 302 305 309 308 309 307 308 301 305 315 326 330 337 341 346 346 345 345 345 344 344 344 344 344 344 343 341 343 344 344 342 341 342 342 342 342 340 337 338
316 309 310 303 293 284 285 291 295 298 303 300 301 301 301 304 299 301 307 318 327 329 335 341 344 346 346 344 344 344 344 344 344 343 342 340 337 338 340 339 339 340 342 342 342 342 341 341 341
305 309 307 301 293 290 288 291 294 299 302 301 300 298 301 302 297 301 308 320 322 325 331 337 342 344 344 343 343 342 342 341 340 339 338 335 334 334 333 332 331 331 333 335 334 334 335 336 336
304 308 305 298 296 296 294 295 298 302 302 303 300 299 295 298 298 301 315 317 319 321 327 336 339 340 339 339 339 339 336 334 333 332 330 328 325 324 326 324 324 324 325 326 325 325 325 325 326
306 304 299 294 296 299 300 300 303 302 302 303 301 299 295 296 298 307 312 314 315 316 321 329 336 337 337 336 335 333 331 328 326 325 323 322 321 321 320 319 320 320 320 320 321 321 321 321 321
300 301 294 293 297 301 303 306 304 302 304 302 299 295 298 295 299 307 308 309 312 313 316 321 327 331 331 331 329 327 325 323 321 321 320 319 318 318 316 317 318 318 318 318 319 319 319 318 318
300 297 295 295 299 300 302 306 304 306 303 304 300 298 296 293 298 304 305 304 307 309 311 312 315 320 324 325 324 323 320 319 318 317 317 316 314 315 314 315 316 315 316 317 317 316 316 315 314
300 299 294 295 300 300 305 303 304 305 305 300 302 299 299 295 297 300 300 300 300 303 306 307 308 310 310 312 319 319 319 317 316 316 315 315 313 312 312 312 312 313 313 314 314 314 313 312 310
300 294 294 297 297 301 299 298 298 298 300 298 300 298 294 295 296 296 295 295 296 298 299 302 304 304 304 305 310 315 317 316 314 312 312 306 300 300 302 310 310 311 311 311 312 312 310 308 306
296 292 295 300 300 298 294 293 295 292 293 294 293 293 294 294 295 296 294 294 293 294 295 298 299 298 298 303 303 302 304 302 300 299 299 299 299 301 301 304 306 308 307 309 309 308 306 302 297
293 293 296 297 295 293 292 291 293 290 291 296 296 295 292 291 293 295 295 296 296 294 295 296 297 296 295 296 298 296 297 297 298 297 298 298 297 296 296 295 295 296 300 297 298 297 297 296 296
289 296 298 299 295 292 291 291 291 291 296 297 296 294 292 292 293 294 294 294 292 293 295 295 296 296 295 294 295 295 296 295 296 296 297 296 295 294 294 294 294 294 295 294 294 295 296 296 296
292 294 295 295 293 291 290 290 291 291 296 296 293 293 292 294 294 294 295 293 291 292 294 294 293 294 294 293 294 294 295 294 296 295 297 296 294 294 294 294 294 293 294 294 294 294 295 294 295
291 292 293 293 291 289 289 288 288 294 296 294 292 292 292 293 294 292 290 291 291 294 293 294 293 293 293 292 293 293 294 294 294 294 296 296 295 294 294 293 293 293 294 294 294 294 293 293 294
290 287 290 291 292 289 287 287 286 295 293 293 292 292 291 293 293 293 293 294 293 294 294 293 294 293 293 292 292 293 293 294 293 294 295 296 296 295 294 293 292 293 294 294 293 293 293 292 293
286 284 283 290 289 288 289 285 293 291 290 292 292 288 289 291 292 294 294 294 293 293 293 294 297 294 292 292 292 293 293 293 293 293 295 296 297 295 293 293 292 293 293 293 292 291 291 291 290
283 281 282 286 288 285 286 284 292 287 286 287 287 288 289 290 290 293 294 294 293 294 294 293 294 293 293 292 292 293 292 292 293 293 294 295 297 296 294 293 293 293 292 291 291 291 290 289 289
281 280 281 282 285 283 281 282 289 291 285 286 286 285 285 289 293 294 294 294 294 294 294 295 295 295 293 292 291 291 291 291 292 293 294 296 296 295 294 292 293 293 291 290 290 290 289 289 288
280 280 281 282 284 283 281 283 286 290 286 286 287 287 286 288 293 295 294 295 294 294 294 294 294 294 293 291 290 289 289 290 291 293 294 296 295 295 293 292 292 292 290 290 290 289 288 287 288
281 279 280 282 283 282 280 281 284 287 287 287 289 289 289 290 290 291 292 293 293 293 294 294 294 294 294 294 290 291 291 290 292 293 294 295 295 295 294 292 292 291 290 289 289 288 287 287 287
277 280 278 279 280 280 278 280 281 284 285 287 288 290 290 290 290 290 289 291 293 293 294 294 294 294 294 294 292 291 292 291 291 292 293 294 295 295 294 293 292 291 290 288 288 287 286 285 286
277 278 279 278 276 272 276 273 279 283 286 284 286 287 288 288 289 289 289 289 292 293 295 295 295 294 294 293 293 291 291 290 291 291 292 293 295 294 294 293 292 291 290 288 287 288 286 285 283
276 278 278 278 275 273 272 272 277 280 283 285 287 286 285 286 287 288 289 290 292 294 294 295 295 294 294 294 294 293 291 290 289 290 292 292 293 293 293 293 291 290 289 288 287 286 286 285 284
280 279 279 276 274 267 273 273 280 278 281 282 285 286 287 287 286 286 287 288 290 292 293 294 294 293 294 293 294 293 292 289 289 289 291 291 291 291 292 292 290 290 289 287 287 286 286 285 285
278 276 269 265 263 269 272 272 281 282 284 283 285 286 287 287 287 285 284 285 287 289 291 292 292 292 293 293 293 293 291 291 291 291 292 290 289 289 290 290 289 288 288 287 287 286 285 285 284
276 276 272 266 267 270 274 271 277 282 284 285 285 286 286 286 286 286 285 285 286 288 289 291 291 291 292 293 293 293 292 292 292 292 291 291 291 290 290 289 289 288 288 287 287 286 285 285 284
276 275 276 272 267 269 274 277 281 284 285 284 285 284 285 283 285 285 286 285 286 287 288 290 291 292 292 292 293 292 291 291 291 290 291 291 290 290 289 289 287 287 287 287 286 285 284 284 284
277 279 273 271 264 264 272 273 276 282 283 283 284 284 284 283 283 284 285 285 286 287 288 290 291 292 292 292 293 292 292 292 291 291 291 290 289 289 288 287 287 286 286 286 285 284 284 284 283
275 274 273 274 273 269 267 273 279 281 281 281 284 284 282 283 284 284 284 284 284 285 286 287 288 289 290 291 291 291 291 291 290 290 290 290 289 288 288 287 287 286 286 285 285 284 283 282 282
275 275 275 272 269 271 273 274 281 281 282 282 284 285 284 284 284 284 284 284 283 284 284 285 286 287 289 290 289 289 289 289 289 289 289 288 288 288 288 287 287 286 286 285 284 283 283 281 281
Wind_Speed
7 6 1 5 5 5 4 8 3 3 2 2 5 6 8 4 7 6 4 4 6 8 6 10 15 15 13 12 12 11 9 7 7 8 8 8 7 7 9 8 6 2 2 4 5 4 4 4 4
4 2 4 3 5 1 7 5 8 6 1 4 4 3 2 6 3 2 4 6 5 6 4 9 14 14 16 15 14 13 12 10 10 9 9 9 6 5 7 7 6 7 9 8 10 11 11 11 9
2 2 3 4 3 6 6 5 6 2 3 2 1 1 4 5 2 7 6 10 6 5 4 6 11 14 14 13 13 11 11 10 10 9 9 7 7 8 9 9 10 9 9 9 9 10 10 9 10
2 4 4 4 9 8 8 5 4 1 2 4 1 5 3 2 4 7 10 10 8 6 5 7 9 11 12 12 12 12 10 9 9 9 9 8 7 8 9 9 9 9 9 9 8 8 8 9 10
4 2 2 4 8 6 6 6 5 4 3 4 7 5 5 2 2 8 10 9 9 6 5 6 11 12 13 13 12 11 11 10 10 9 9 8 8 8 9 8 8 8 8 8 8 8 9 9 9
1 2 2 7 8 5 5 8 5 5 6 2 4 3 5 1 7 7 8 8 7 8 6 6 9 10 12 13 13 12 12 11 10 10 9 9 9 9 8 8 9 8 8 8 9 10 9 9 9
5 4 6 5 11 7 6 7 7 10 5 9 4 7 3 4 7 8 8 7 6 5 6 5 6 7 9 9 10 11 12 11 11 10 10 10 9 9 8 7 8 8 8 8 8 8 9 9 10
4 4 4 7 11 18 6 7 4 9 10 2 6 8 6 6 10 8 7 6 6 6 5 6 5 6 6 5 9 10 12 12 11 11 11 10 10 9 8 8 7 7 8 7 7 8 9 9 10
3 2 9 8 8 8 2 4 2 1 3 4 7 3 1 8 12 9 5 4 4 4 6 6 6 5 6 6 6 9 11 11 11 9 10 8 5 5 6 7 7 7 8 7 7 8 9 10 9
4 5 8 5 6 6 2 2 2 1 4 5 3 2 4 9 12 14 12 12 7 8 7 7 7 7 6 4 5 5 5 5 5 5 5 4 4 4 5 5 7 7 8 8 8 9 9 7 4
6 8 6 5 5 4 3 3 2 4 6 10 11 7 8 6 11 13 12 13 16 8 6 8 7 7 7 5 4 3 3 3 4 6 5 5 4 3 3 2 2 3 6 3 4 4 3 5 4
4 10 8 4 5 5 5 2 5 8 11 4 8 5 10 14 16 17 15 14 11 10 11 9 8 7 7 4 4 5 4 3 3 4 6 5 3 3 2 2 2 2 2 3 3 2 3 4 4
6 3 4 6 7 6 1 9 9 9 13 9 4 8 13 16 19 13 11 7 7 11 11 11 9 8 7 7 5 4 5 4 5 5 5 4 4 4 3 2 2 2 2 1 2 2 3 4 4
2 4 7 5 6 6 6 4 6 19 11 12 10 13 14 16 20 11 8 12 14 13 13 10 11 9 7 6 7 5 4 5 5 4 5 6 4 4 4 3 2 2 1 1 1 2 3 3 4
3 6 7 7 5 7 6 9 13 28 5 12 14 13 12 18 11 19 20 18 16 13 12 13 13 9 9 9 7 5 5 5 5 4 6 6 5 5 5 3 2 2 1 1 2 3 3 4 4
3 2 3 2 7 4 7 10 16 6 8 16 11 8 10 14 17 16 14 13 11 10 15 13 12 13 10 8 7 5 5 5 4 4 4 6 6 6 5 4 2 1 2 2 2 3 3 3 3
2 6 6 8 9 4 7 7 7 2 4 10 10 10 10 11 11 15 13 14 13 15 14 13 13 14 13 8 6 6 7 5 5 4 4 6 6 6 5 4 2 2 1 3 1 2 1 2 4
8 6 6 7 2 2 5 17 20 11 5 11 10 10 10 13 21 16 17 16 15 15 14 14 12 13 12 7 5 4 4 3 4 5 5 6 5 6 5 4 4 3 2 2 1 2 2 1 4
2 4 7 3 1 4 9 16 19 20 8 13 16 15 14 20 19 15 17 17 15 15 16 15 15 13 11 6 6 4 5 4 2 4 7 7 6 6 6 4 5 3 3 2 1 2 3 2 4
7 5 13 7 3 5 8 22 19 20 17 18 23 21 21 16 13 15 16 17 19 19 20 19 20 15 13 10 4 4 4 3 3 4 5 6 6 6 5 5 5 5 3 2 2 3 1 1 4
5 13 5 9 5 5 5 23 11 8 10 17 18 23 16 19 16 14 15 19 18 21 23 20 20 19 17 13 8 4 5 4 3 3 3 5 7 7 6 6 5 5 4 3 2 2 2 1 2
15 9 7 5 2 6 1 15 7 7 19 9 13 16 17 15 12 13 17 17 21 21 18 20 20 19 16 17 14 9 7 6 4 5 4 5 7 7 6 6 6 5 3 4 3 3 2 2 1
7 4 7 4 4 3 3 3 5 2 10 9 13 10 9 10 11 14 16 18 19 18 19 19 19 18 17 18 17 13 7 5 4 4 8 6 5 6 6 6 6 5 4 4 5 4 3 2 2
9 7 7 5 2 4 10 8 28 8 8 5 4 4 4 6 6 7 6 8 11 12 15 16 18 17 17 18 16 17 14 9 6 5 7 6 4 4 6 6 6 5 5 5 5 4 4 4 3
2 7 1 5 3 10 2 5 18 11 13 9 10 10 7 5 4 5 7 7 7 12 14 14 17 17 17 18 17 17 15 14 13 10 8 8 5 4 7 6 6 4 5 5 5 5 4 4 3
9 9 9 10 6 5 3 13 10 10 11 11 7 7 8 6 2 3 5 5 7 9 11 14 14 15 16 18 18 15 14 10 7 9 8 8 8 7 7 7 6 6 6 5 5 3 3 4 4
8 10 5 7 2 4 7 9 10 15 15 9 8 6 7 3 1 2 2 5 6 8 11 15 15 13 14 16 13 12 10 10 10 9 8 7 6 6 8 8 7 7 6 6 6 4 4 4 4
5 4 4 3 4 5 7 7 9 11 11 4 7 6 5 4 1 1 3 4 5 6 7 9 11 14 14 14 12 12 13 11 10 9 10 10 7 7 8 8 8 7 6 7 6 4 4 4 3
5 4 0 3 6 8 2 8 9 10 6 5 7 5 3 4 3 1 0 2 4 3 6 7 8 9 11 12 11 11 11 11 10 11 11 11 9 10 10 10 9 8 8 7 6 6 5 5 5
1 4 7 7 7 4 3 11 1 4 6 4 7 8 7 5 2 1 2 1 3 5 5 7 7 9 10 10 10 10 10 11 12 11 11 10 12 10 11 10 9 8 8 7 7 7 5 6 6
Wind_Direction
320 318 91 47 53 63 265 260 266 271 257 160 122 148 188 155 172 207 330 235 159 153 169 158 155 153 146 142 140 142 143 151 139 114 106 86 67 71 65 93 84 50 291 305 325 335 2 27 22
321 314 42 87 103 73 268 248 239 231 246 127 129 107 150 232 198 219 128 198 165 148 144 142 149 152 147 155 157 150 148 141 128 121 104 84 88 82 69 65 62 46 34 41 33 29 31 25 19
273 7 89 117 144 194 227 229 254 263 168 173 186 273 170 214 204 186 210 151 142 135 138 128 130 133 135 131 127 126 125 120 113 95 92 110 93 87 82 69 62 59 46 40 32 24 21 12 15
40 10 36 143 221 236 209 237 228 267 180 239 157 262 288 214 163 179 145 141 136 143 130 136 133 143 157 145 137 134 125 120 110 113 111 112 100 92 88 71 66 59 56 51 46 37 34 33 19
33 60 211 234 239 242 242 235 178 229 240 213 158 255 251 237 99 133 138 138 141 145 143 135 148 159 158 152 145 139 136 130 127 125 119 114 95 92 82 76 73 67 61 52 46 46 41 32 27
50 106 165 233 238 240 233 222 180 215 225 190 172 159 245 96 141 163 140 145 147 149 150 144 148 153 153 151 147 144 137 133 130 126 119 108 94 93 79 75 73 62 59 53 54 42 35 31 33
163 140 225 238 253 264 211 175 194 234 224 226 161 185 253 214 185 152 142 136 144 146 146 145 141 144 139 143 143 141 135 132 129 126 121 112 97 92 82 71 72 57 61 62 53 47 39 28 22
153 154 232 224 241 266 209 191 199 184 249 70 161 221 231 210 153 124 120 139 155 160 163 162 155 143 135 129 134 137 139 132 130 124 117 109 98 95 86 65 68 63 58 56 51 52 41 24 13
140 184 239 231 179 249 190 208 174 93 221 220 203 197 38 116 122 121 127 153 170 186 186 171 163 157 146 145 156 146 139 133 124 118 116 104 100 92 77 72 72 72 64 54 51 45 32 20 12
177 184 230 224 202 223 245 211 250 226 215 252 268 194 92 131 158 167 176 186 191 191 192 180 172 167 160 158 146 140 132 120 122 121 117 110 108 102 93 66 63 64 58 53 48 37 31 21 5
194 206 218 240 228 204 224 264 233 195 229 219 207 198 154 161 181 185 194 195 199 183 177 184 175 170 165 159 155 152 143 137 134 138 135 126 104 89 86 77 44 45 51 45 39 26 29 21 8
234 240 212 232 204 175 217 212 243 197 234 200 231 178 162 180 194 195 197 199 177 183 189 178 179 172 181 162 168 162 155 159 158 162 149 135 130 121 107 101 90 71 54 59 32 27 2 23 353
222 272 253 266 238 237 320 237 236 251 239 235 227 175 190 192 205 207 206 179 171 192 191 190 172 181 181 173 172 171 175 166 170 163 165 143 143 144 143 136 106 75 64 61 55 26 8 358 349
253 275 269 267 262 251 228 239 133 252 242 236 199 207 200 201 204 195 184 195 194 194 194 180 183 180 170 174 176 176 168 168 168 171 171 162 149 147 139 128 108 94 67 347 61 60 9 347 338
304 312 312 235 218 232 167 279 226 252 206 232 222 219 204 212 195 206 203 202 193 201 187 182 182 173 177 182 177 168 176 165 169 179 177 162 151 154 137 132 118 110 99 33 12 32 17 349 334
285 217 278 198 142 241 140 265 272 307 214 236 246 232 215 222 212 215 208 207 191 186 189 182 184 182 179 175 175 170 174 166 177 172 166 167 160 151 138 134 134 144 111 87 2 30 0 330 322
247 253 231 313 196 140 186 252 244 137 207 269 263 250 236 238 224 220 205 200 187 192 184 184 181 178 182 174 169 169 174 177 177 163 170 173 162 152 142 137 147 137 119 89 32 42 43 325 329
200 227 238 234 190 198 254 259 273 268 234 258 255 253 245 236 236 218 206 197 191 191 188 188 185 183 177 159 146 138 162 182 173 174 171 169 163 156 140 139 146 134 96 69 86 78 11 323 299
137 217 247 249 147 238 238 260 262 271 241 258 257 251 240 236 232 217 204 199 193 188 183 182 179 181 167 163 161 152 177 166 191 183 169 171 165 162 155 150 143 141 139 145 91 88 46 348 322
251 277 263 279 226 193 282 272 264 262 251 234 246 250 244 243 224 209 195 190 194 189 189 185 187 177 182 178 153 149 146 165 153 168 171 170 170 164 162 160 157 153 141 132 77 80 132 339 12
221 228 232 232 328 234 329 282 243 269 248 251 252 253 253 238 232 206 194 196 189 194 191 188 185 179 180 172 143 94 92 81 123 170 170 181 172 170 170 164 152 156 151 159 152 138 111 115 8
250 201 194 226 121 252 41 286 239 264 267 218 243 243 245 234 228 207 201 197 197 196 190 188 184 178 176 164 170 167 171 160 190 167 148 168 175 170 171 162 162 163 154 157 177 157 140 122 84
228 126 168 155 177 350 200 248 256 83 274 247 243 252 243 236 223 215 201 201 197 188 188 184 180 179 176 176 175 175 171 151 142 136 152 166 169 172 173 164 164 168 170 173 172 158 164 172 146
144 87 56 42 97 281 179 162 281 208 240 286 266 321 308 317 260 238 216 187 190 187 184 180 175 177 173 177 177 182 179 158 147 150 166 166 160 169 182 170 167 173 176 175 183 169 177 191 193
151 113 316 338 3 236 211 175 250 306 269 221 257 283 271 322 280 259 213 188 172 181 178 177 178 178 174 177 180 183 179 175 171 168 168 162 155 184 190 170 171 174 185 181 169 168 186 198 191
195 172 167 198 201 250 134 237 249 231 278 249 259 264 306 317 294 255 234 206 175 169 170 176 178 177 177 181 185 183 181 179 174 168 166 172 185 183 165 174 170 181 183 177 175 172 189 198 205
187 217 154 103 53 40 227 280 282 261 278 293 253 255 280 330 352 335 164 189 172 169 180 179 178 181 181 181 178 180 173 166 175 165 163 172 168 168 170 168 172 182 181 181 174 182 194 195 211
181 182 107 351 161 238 263 267 236 295 268 348 346 273 287 306 264 139 138 186 190 176 168 176 180 183 179 175 178 180 178 174 170 163 174 179 171 162 162 168 175 180 182 183 177 181 192 193 214
157 199 140 130 168 181 251 259 221 241 295 305 333 330 278 275 343 1 281 156 176 159 165 170 162 162 167 176 175 168 172 171 167 179 180 179 167 168 172 174 178 180 183 184 182 190 189 202 210
237 241 181 145 225 245 144 258 262 244 349 141 44 28 11 20 11 12 38 67 155 175 177 181 173 174 178 174 169 173 166 172 182 185 179 170 176 177 174 173 177 181 183 182 187 191 187 199 219